This demonstration page uses our WeatherBlox Daily Observations layout. Learn more.

Left ArrowRight Arrow

38.88101, -77.10428

Hourly Observations for October 7, 2022

Temp ( °F °C ) Dew Point ( °F °C ) Humidity (%) Winds ( mph kmh ) Pressure ( in mb ) Visibility ( mi km ) Precip ( " mm )
12:52 am 00:52 Mostly Clear 60 15.6 57 13.9 90 90 S 6 9 30.03 1017 10 16 0.00 0.00
1:52 am 01:52 Mostly Clear 59 15 55 12.8 87 87 S 5 7 30.02 1017 10 16 0.00 0.00
2:52 am 02:52 Mostly Clear 58 14.4 54 12.2 87 87 Calm 30.02 1017 10 16 0.00 0.00
3:52 am 03:52 Mostly Clear 57 13.9 55 12.8 93 93 SSW 3 6 30.01 1016 10 16 0.00 0.00
4:52 am 04:52 Partly Cloudy 56 13.3 54 12.2 93 93 SSW 6 9 30.02 1017 10 16 0.00 0.00
5:52 am 05:52 Partly Cloudy 56 13.3 52 11.1 87 87 SW 5 7 30.03 1017 10 16 0.00 0.00
6:52 am 06:52 Mostly Clear with Patchy Fog 54 12.2 51 10.6 90 90 SSW 3 6 30.04 1017 10 16 0.00 0.00
7:52 am 07:52 Partly Cloudy with Patchy Fog 55 12.8 52 11.1 89 89 SW 3 6 30.05 1018 9 14 0.00 0.00
8:52 am 08:52 Sunny 60 15.6 54 12.2 80 80 S 5 7 30.06 1018 9 14 0.00 0.00
9:52 am 09:52 Sunny 63 17.2 56 13.3 78 78 S 6 9 30.06 1018 10 16 0.00 0.00
10:52 am 10:52 Sunny 67 19.4 55 12.8 66 66 S 9 15 30.06 1018 10 16 0.00 0.00
11:52 am 11:52 Sunny 73 22.8 54 12.2 51 51 S 9 15 30.05 1018 10 16 0.00 0.00
12:52 pm 12:52 Sunny 76 24.4 52 11.1 43 43 S 7 11 30.03 1017 10 16 0.00 0.00
1:52 pm 13:52 Mostly Sunny 79 26.1 48 8.9 34 34 S 5 7 30.01 1016 10 16 0.00 0.00
2:52 pm 14:52 Mostly Sunny 80 26.7 47 8.3 31 31 SSW 7 11 29.99 1016 10 16 0.00 0.00
3:52 pm 15:52 Mostly Sunny 78 25.6 47 8.3 33 33 VRB 7 11 29.98 1015 10 16 0.00 0.00
4:52 pm 16:52 Mostly Cloudy 81 27.2 49 9.4 33 33 WSW 7 11 29.98 1015 10 16 0.00 0.00
5:52 pm 17:52 Mostly Cloudy 75 23.9 50 10 41 41 SW 3 6 29.97 1015 10 16 0.00 0.00
6:52 pm 18:52 Cloudy 74 23.3 50 10 43 43 SSW 7 11 29.98 1015 10 16 0.00 0.00
7:52 pm 19:52 Cloudy 73 22.8 53 11.7 50 50 NW 20 31 30.02 1017 10 16 0.00 0.00
8:52 pm 20:52 Cloudy 68 20 53 11.7 59 59 NW 16 26 30.06 1018 10 16 0.00 0.00
9:52 pm 21:52 Cloudy 65 18.3 50 10 58 58 NNW 16 26 30.09 1019 10 16 0.00 0.00
10:52 pm 22:52 Cloudy 63 17.2 48 8.9 58 58 NNW 16 26 30.13 1020 10 16 0.00 0.00
11:52 pm 23:52 Cloudy 62 16.7 46 7.8 56 56 NNW 18 30 30.15 1021 10 16 0.00 0.00

Powered by AerisWeather